Weather History for KJKA - September, 2012

Change the Weather History Date:

Wednesday, September 19, 2012

  Actual Average (KPNS) Record (KPNS)
Temperature  
Mean Temperature 72 °F 78 °F  
Max Temperature 80 °F 86 °F 97 °F (2005)
Min Temperature 64 °F 70 °F 49 °F (1981)
Cooling Degree Days 7 13  
Month to date cooling degree days 279  
Year to date cooling degree days 2246  
Growing Degree Days 22 (Base 50)    
Moisture  
Dew Point 62 °F    
Average Humidity 74    
Maximum Humidity 94    
Minimum Humidity 54    
Precipitation  
Precipitation 0.00 in 0.19 in 5.60 in (1947)
Month to date precipitation 3.79  
Year to date precipitation 48.56  
Sea Level Pressure  
Sea Level Pressure 30.03 in    
Wind  
Wind Speed 5 mph (North)    
Max Wind Speed 9 mph    
Max Gust Speed -    
Visibility 10 miles    
Events      
T = Trace of Precipitation, MM = Missing Value Source: NWS Daily Summary

Daily Weather History Graph

Daily Weather History Graph

Search for Another Location

Airport or City:

Trip Planner

Search our weather history database for the weather conditions in past years. The results will help you decide how hot, cold, wet, or windy it might be!

Date:

Astronomy

Sep. 19, 2012 Rise Set
Actual Time 6:37 AM CDT 6:50 PM CDT
Civil Twilight 6:13 AM CDT 7:14 PM CDT
Nautical Twilight 5:45 AM CDT 7:42 PM CDT
Astronomical Twilight 5:17 AM CDT 8:10 PM CDT
Moon 10:25 AM CDT (9/19) 9:22 PM CDT (9/19)
Length of Visible Light 13h 00m
Length of Day
12h 12m
Waxing Crescent, 17% of the Moon is Illuminated
Sep 19
Waxing Crescent
Sep 22
First Quarter
Sep 29
Full
Oct 8
Last Quarter
Oct 15
New

Hourly Weather History & Observations

Time (CDT) Temp. Heat Index Dew Point Humidity Pressure Visibility Wind Dir Wind Speed Gust Speed Precip Events Conditions
12:15 AM 69.8 °F - 66.2 °F 88% 29.98 in 10.0 mi North 4.6 mph - N/A   Clear
12:55 AM 69.8 °F - 64.4 °F 83% 29.98 in 10.0 mi North 8.1 mph - N/A   Clear
1:15 AM 69.8 °F - 64.4 °F 83% 29.98 in 10.0 mi North 5.8 mph - N/A   Clear
1:35 AM 68.0 °F - 64.4 °F 88% 29.97 in 10.0 mi North 6.9 mph - N/A   Clear
1:55 AM 68.0 °F - 64.4 °F 88% 29.97 in 10.0 mi North 6.9 mph - N/A   Clear
2:15 AM 68.0 °F - 64.4 °F 88% 29.97 in 10.0 mi North 9.2 mph - N/A   Clear
2:35 AM 68.0 °F - 62.6 °F 83% 29.96 in 10.0 mi North 6.9 mph - N/A   Clear
2:55 AM 68.0 °F - 62.6 °F 83% 29.96 in 10.0 mi North 6.9 mph - N/A   Clear
3:15 AM 68.0 °F - 62.6 °F 83% 29.96 in 10.0 mi North 6.9 mph - N/A   Clear
3:35 AM 66.2 °F - 62.6 °F 88% 29.97 in 10.0 mi North 5.8 mph - N/A   Clear
3:55 AM 66.2 °F - 62.6 °F 88% 29.97 in 10.0 mi NNE 5.8 mph - N/A   Clear
4:15 AM 66.2 °F - 62.6 °F 88% 29.98 in 10.0 mi NNE 4.6 mph - N/A   Clear
4:55 AM 64.4 °F - 60.8 °F 88% 29.99 in 10.0 mi NNE 4.6 mph - N/A   Clear
5:15 AM 64.4 °F - 62.6 °F 94% 30.00 in 10.0 mi NNE 5.8 mph - N/A   Clear
5:35 AM 64.4 °F - 62.6 °F 94% 30.00 in 10.0 mi North 6.9 mph - N/A   Clear
5:55 AM 64.4 °F - 62.6 °F 94% 30.01 in 10.0 mi North 4.6 mph - N/A   Clear
6:15 AM 64.4 °F - 62.6 °F 94% 30.02 in 10.0 mi North 5.8 mph - N/A   Clear
6:35 AM 64.4 °F - 62.6 °F 94% 30.02 in 10.0 mi North 3.5 mph - N/A   Clear
6:55 AM 64.4 °F - 62.6 °F 94% 30.02 in 10.0 mi North 4.6 mph - N/A   Clear
7:15 AM 64.4 °F - 60.8 °F 88% 30.03 in 10.0 mi NNE 4.6 mph - N/A   Clear
7:35 AM 64.4 °F - 60.8 °F 88% 30.04 in 10.0 mi North 6.9 mph - N/A   Clear
7:55 AM 64.4 °F - 62.6 °F 94% 30.04 in 10.0 mi North 5.8 mph - N/A   Clear
8:15 AM 66.2 °F - 60.8 °F 83% 30.05 in 10.0 mi NNE 6.9 mph - N/A   Clear
8:35 AM 68.0 °F - 60.8 °F 78% 30.05 in 10.0 mi NE 6.9 mph - N/A   Clear
8:55 AM 68.0 °F - 60.8 °F 78% 30.06 in 10.0 mi NE 5.8 mph - N/A   Clear
9:15 AM 69.8 °F - 60.8 °F 73% 30.06 in 10.0 mi ENE 5.8 mph - N/A   Clear
9:55 AM 71.6 °F - 60.8 °F 69% 30.06 in 10.0 mi NE 6.9 mph - N/A   Clear
10:15 AM 71.6 °F - 60.8 °F 69% 30.07 in 10.0 mi ENE 5.8 mph - N/A   Clear
10:35 AM 73.4 °F - 62.6 °F 69% 30.07 in 10.0 mi ESE 5.8 mph - N/A   Clear
10:55 AM 73.4 °F - 60.8 °F 65% 30.07 in 10.0 mi SE 4.6 mph - N/A   Clear
11:15 AM 75.2 °F - 60.8 °F 61% 30.07 in 10.0 mi Calm Calm - N/A   Clear
11:35 AM 77.0 °F - 62.6 °F 61% 30.07 in 10.0 mi NW 4.6 mph - N/A   Clear
11:55 AM 77.0 °F - 62.6 °F 61% 30.07 in 10.0 mi North 3.5 mph - N/A   Clear
12:15 PM 77.0 °F - 60.8 °F 57% 30.07 in 10.0 mi NNW 5.8 mph - N/A   Clear
12:35 PM 77.0 °F - 62.6 °F 61% 30.07 in 10.0 mi North 4.6 mph - N/A   Clear
12:55 PM 77.0 °F - 60.8 °F 57% 30.06 in 10.0 mi Calm Calm - N/A   Clear
1:15 PM 78.8 °F - 62.6 °F 57% 30.06 in 10.0 mi North 3.5 mph - N/A   Scattered Clouds
1:35 PM 78.8 °F - 64.4 °F 61% 30.05 in 10.0 mi SSE 5.8 mph - N/A   Scattered Clouds
1:55 PM 78.8 °F - 64.4 °F 61% 30.04 in 10.0 mi South 5.8 mph - N/A   Scattered Clouds
2:15 PM 78.8 °F - 64.4 °F 61% 30.04 in 10.0 mi SW 5.8 mph - N/A   Clear
2:35 PM 78.8 °F - 64.4 °F 61% 30.03 in 10.0 mi WSW 6.9 mph - N/A   Clear
2:55 PM 78.8 °F - 64.4 °F 61% 30.02 in 10.0 mi SSW 6.9 mph - N/A   Clear
3:15 PM 78.8 °F - 64.4 °F 61% 30.01 in 10.0 mi West 4.6 mph - N/A   Clear
3:35 PM 80.6 °F 81.8 °F 62.6 °F 54% 30.01 in 10.0 mi North 6.9 mph - N/A   Clear
3:55 PM 80.6 °F 82.3 °F 64.4 °F 58% 30.01 in 10.0 mi North 4.6 mph - N/A   Clear
4:15 PM 78.8 °F - 62.6 °F 57% 30.00 in 10.0 mi North 3.5 mph - N/A   Clear
4:35 PM 80.6 °F 81.8 °F 62.6 °F 54% 30.00 in 10.0 mi North 4.6 mph - N/A   Clear
4:55 PM 78.8 °F - 62.6 °F 57% 30.00 in 10.0 mi NNW 6.9 mph - N/A   Clear
5:15 PM 78.8 °F - 62.6 °F 57% 30.00 in 10.0 mi North 5.8 mph - N/A   Clear
5:35 PM 78.8 °F - 60.8 °F 54% 30.00 in 10.0 mi NNE 5.8 mph - N/A   Clear
5:55 PM 78.8 °F - 60.8 °F 54% 30.00 in 10.0 mi North 3.5 mph - N/A   Clear
6:15 PM 77.0 °F - 62.6 °F 61% 30.01 in 10.0 mi North 3.5 mph - N/A   Clear
6:35 PM 77.0 °F - 62.6 °F 61% 30.01 in 10.0 mi NNE 3.5 mph - N/A   Clear
6:55 PM 73.4 °F - 62.6 °F 69% 30.02 in 10.0 mi Calm Calm - N/A   Clear
7:15 PM 73.4 °F - 62.6 °F 69% 30.02 in 10.0 mi North 4.6 mph - N/A   Clear
7:35 PM 73.4 °F - 62.6 °F 69% 30.03 in 10.0 mi Calm Calm - N/A   Clear
7:55 PM 71.6 °F - 62.6 °F 73% 30.03 in 10.0 mi North 3.5 mph - N/A   Clear
8:15 PM 71.6 °F - 62.6 °F 73% 30.04 in 10.0 mi Calm Calm - N/A   Clear
8:35 PM 69.8 °F - 62.6 °F 78% 30.05 in 10.0 mi Calm Calm - N/A   Clear
8:55 PM 69.8 °F - 60.8 °F 73% 30.06 in 10.0 mi Calm Calm - N/A   Clear
9:15 PM 69.8 °F - 60.8 °F 73% 30.07 in 10.0 mi North 3.5 mph - N/A   Clear
9:35 PM 68.0 °F - 60.8 °F 78% 30.07 in 10.0 mi Calm Calm - N/A   Clear
9:55 PM 68.0 °F - 62.6 °F 83% 30.08 in 10.0 mi Calm Calm - N/A   Clear
10:15 PM 68.0 °F - 62.6 °F 83% 30.08 in 10.0 mi Calm Calm - N/A   Clear
10:35 PM 68.0 °F - 60.8 °F 78% 30.08 in 10.0 mi Calm Calm - N/A   Clear
10:55 PM 66.2 °F - 60.8 °F 83% 30.08 in 10.0 mi North 3.5 mph - N/A   Clear
11:35 PM 64.4 °F - 60.8 °F 88% 30.07 in 10.0 mi Calm Calm - N/A   Clear
11:55 PM 64.4 °F - 59.0 °F 83% 30.07 in 10.0 mi NNE 3.5 mph - N/A   Clear